Location: Aranbee
(34.0885°N, 118.2342°W)
Time: 07:52:46
(UTC+00:00)

Courier 1B Rocket - Pass Details

Date: 05 December 2020
Orbit: 920 x 1202 km, 28.2° (Epoch: 27 January)

Event Time Altitude Azimuth Distance (km) Brightness Sun altitude
Rises 08:31:28 0° 207° (SSW) 3,820 - -74.3°
Reaches altitude 10° 08:35:14 10° 187° (S) 2,925 - -73.8°
Maximum altitude 08:39:35 17° 150° (SSE) 2,507 - -73.1°
Drops below altitude 10° 08:44:05 10° 113° (ESE) 3,047 - -72.4°
Sets 08:48:07 0° 94° (E) 4,051 - -71.7°
